SCP
0 0 0 0 0 0 0 0 0 0 0 0 0 0 0 0 0 0 0 0 0 0 0 0 0 0 0 0 0 0 0 0 0 0 0 0 0 0 0 0 0 0 0
0 0 0 0 0 0 0 0 0 0 0 0 0 0 0 0 0 0 0 0 0 0 0 0 0 0 0 0 0 0 0 0 0 0 0 0 0 0 0 0 0 0 0
0 0 0 0 0 0 0 0 0 0 0 0 0 0 0 0 0 0 0 0 0 0 0 0 0 0 0 0 0 0 0 0 0 0 0 0 0 0 0 0 0 0 0
0 0 0 0 0 0 0 0 0 0 0 0 0 0 0 0 0 0 0 0 0 0 0 0 0 0 0 0 0 0 0 0 0 0 0 0 0 0 0 0 0 0 0
0 0 0 0 0 0 0 0 0 0 0 0 0 0 0 0 0 0 0 0 0 0 0 0 0 0 0 0 0 0 0 0 0 0 0 0 0 0 0 0 0 0 0
0 0 0 0 0 0 0 0 0 0 0 0 0 0 0 0 0 -0 0 0 0 0 0 0 0 0 -0 0 0 0 0 -0 0 -0 -0 0 0 0 0 0 0 0 0
0 0 0 0 0 0 0 0 0 0 0 0 0 0 0 0 -0 -0 0 0 0 0 0 0 0 -0 -0 -0 0 0 -0 0 0 0 -0 -0 0 0 0 0 0 0 0
0 0 0 0 0 0 0 0 0 0 0 0 0 0 0 0 -0 -0 0 0 0 0 0 0 -0 0 0 0 0 0 -0 -0 0 0 0 -0 -0 -0 0 0 0 0 0
0 0 0 0 0 0 0 0 0 0 0 0 0 -0 -0 -0 0 -0 -0 0 0 0 0 0 -0 -0 -0 0 0 0 0 0 0 0 0 0 0 -0 0 0 0 0 0
0 0 0 0 0 0 0 0 0 0 0 0 0 0 0 0 -0 -0 0 0 0 0 0 0 -0 0 -0 -0 0 0 0 0 0 0 0 0 0 0 0 0 0 0 0
0 0 0 0 0 0 0 0 0 0 0 0 0 0 0 0 0 0 0 0 0 0 0 0 0 -0 -0 0 -0 0 -0 -0 0 0 0 0 0 -0 0 0 0 0 0
0 0 0 0 0 0 0 0 0 0 0 0 0 0 0 0 0 0 0 0 0 0 0 0 0 -0 -0 0 0 -0 -0 0 0 0 0 0 0 0 0 0 0 0 0
0 0 0 0 0 0 0 0 0 0 0 0 0 0 0 0 0 0 0 0 0 0 0 0 0 0 0 0 -0 -0 0 0 0 0 0 0 0 0 0 0 0 0 0
0 0 0 0 0 0 0 0 0 0 -0 -0 0 0 0 0 0 0 0 0 0 0 0 0 0 0 0 0 0 0 0 0 0 0 0 -0 0 0 0 0 0 0 0
0 0 0 0 0 0 0 0 0 0 -0 -0 -0 0 -0 0 0 0 0 0 0 0 0 0 0 0 0 0 0 0 0 0 0 0 0 0 -0 -0 0 0 0 0 0
0 0 0 0 0 0 0 0 0 0 -0 -0 -0 -0 -0 -0 0 0 0 0 0 0 0 0 0 0 0 0 0 0 0 0 0 0 0 0 0 0 0 0 0 0 0
0 0 0 0 0 0 0 0 0 0 0 0 -0 -0 -0 0 -0 -0 -0 -0 0 0 0 0 0 0 0 0 0 0 0 0 0 0 -0 0 0 0 0 0 0 0 0
0 0 0 0 0 0 0 0 0 0 0 0 0 0 0 0 0 0 -0 -0 0 0 0 0 0 0 0 0 0 0 0 0 0 0 0 0 0 -0 0 -0 0 0 0
0 0 0 0 0 0 0 0 0 0 0 0 0 0 0 0 0 0 -0 0 -0 0 0 0 0 0 0 0 0 0 0 0 0 0 0 0 0 0 0 -0 -0 -0 -0
0 0 0 0 0 0 0 0 0 0 0 0 0 0 0 0 0 0 0 0 0 0 0 0 0 0 0 0 0 0 0 0 0 0 0 0 0 0 -0 0 0 0 0
0 0 0 0 0 0 0 0 0 0 0 0 0 0 0 0 0 0 0 0 0 0 0 0 0 0 0 0 0 0 0 0 0 0 0 0 -0 -0 0 0 0 0 0
0 0 0 0 0 0 0 0 0 0 0 0 0 0 0 0 0 0 0 0 0 0 0 0 0 0 0 0 0 0 0 0 0 0 0 0 0 0 0 0 0 0 0
0 0 0 0 0 0 0 0 0 0 0 0 0 0 0 0 0 0 0 0 0 0 0 0 0 0 0 0 0 0 0 0 0 0 0 0 0 0 0 0 0 0 0
0 0 0 0 0 0 0 0 0 0 0 0 0 0 0 0 0 0 0 0 0 0 0 0 0 0 0 0 0 0 0 0 0 0 0 0 0 0 0 0 0 0 0
0 0 0 0 0 0 0 0 0 0 0 0 0 0 0 0 0 0 0 0 0 0 0 0 0 0 0 0 0 0 0 0 0 0 0 0 0 0 0 0 0 0 0
0 0 0 0 0 0 0 0 0 0 0 0 0 0 0 0 0 0 0 0 0 0 0 0 0 0 0 0 0 0 0 0 0 0 0 0 0 0 0 0 0 0 0
Wind_Speed_500mb
31 34 34 34 38 48 53 50 47 43 38 35 35 37 39 41 41 44 45 47 49 51 54 58 59 58 59 61 63 67 69 65 76 82 76 76 74 60 49 45 37 40 41
31 32 31 31 38 43 44 45 43 38 35 35 35 40 42 45 44 46 48 52 56 58 56 56 58 58 64 64 63 68 69 72 76 79 76 70 74 60 48 43 36 39 44
30 30 29 29 34 37 37 39 40 35 32 31 35 38 38 39 42 43 44 48 53 51 55 58 59 59 62 65 67 70 70 76 77 84 84 71 65 62 57 48 46 41 43
29 29 27 26 27 31 33 35 37 31 29 31 33 33 34 36 37 39 35 40 47 53 53 53 56 59 61 63 65 69 68 72 72 72 68 67 66 60 52 50 45 45 36
28 28 26 25 22 27 31 34 35 30 26 29 30 30 31 31 29 28 37 43 47 46 47 50 52 54 55 56 63 68 69 68 64 71 67 63 61 64 57 50 50 46 41
29 27 29 27 25 25 28 30 31 25 22 23 26 30 29 27 27 29 33 35 36 39 44 47 50 53 55 56 57 54 51 55 52 71 48 58 51 53 56 54 53 55 49
30 28 29 30 31 27 27 25 26 22 20 23 26 29 28 25 24 26 27 27 28 31 35 38 38 36 38 42 41 36 41 47 52 60 66 68 60 57 53 60 60 55 57
31 29 29 31 32 32 30 25 21 24 22 23 23 23 23 22 22 22 22 25 26 28 29 30 33 36 32 33 31 29 33 33 38 47 53 50 50 59 51 52 57 50 50
32 28 27 29 29 30 28 24 23 22 21 18 18 18 20 21 19 16 19 22 27 28 31 35 41 41 39 22 20 22 25 27 25 28 34 36 48 53 31 45 52 54 51
27 26 28 28 27 28 25 22 19 17 17 14 15 21 25 23 23 20 22 23 24 24 27 33 41 47 42 30 16 14 15 19 20 21 22 25 31 31 32 34 37 50 60
26 31 28 26 24 26 23 18 17 16 19 19 21 26 23 21 21 19 18 19 23 27 30 32 37 43 44 33 21 11 7 3 5 6 12 14 14 17 26 33 36 50 54
27 31 28 25 25 27 23 20 19 17 18 23 24 21 17 15 15 16 20 23 26 29 32 35 39 42 46 46 32 24 18 10 10 17 24 27 32 27 34 34 34 48 38
24 28 30 28 27 29 25 23 21 17 18 20 21 18 12 9 11 14 19 23 26 29 31 33 33 36 41 48 49 33 23 18 21 25 36 37 39 35 35 31 30 32 19
26 27 31 34 29 31 29 26 24 19 17 19 21 18 12 5 8 12 17 21 24 28 31 28 28 29 32 38 47 51 46 38 33 33 31 31 32 33 34 34 26 27 27
33 30 36 36 37 31 33 29 28 23 19 18 21 21 13 3 5 9 15 19 23 29 29 26 24 28 31 34 37 42 47 48 48 42 37 35 35 35 36 35 34 35 39
40 38 41 40 41 39 36 35 32 28 22 18 18 21 15 9 3 5 10 14 17 21 19 23 28 33 37 38 38 38 40 42 43 40 40 39 39 36 37 36 34 36 46
45 42 43 47 47 48 44 42 37 34 28 23 19 20 17 14 8 6 6 8 9 15 14 22 28 32 35 35 36 38 42 42 40 39 40 40 39 40 38 39 41 45 50
50 46 45 48 51 53 52 47 43 40 33 27 24 20 20 17 12 8 7 8 7 10 15 21 25 28 29 30 33 36 38 37 37 40 41 42 40 40 41 42 40 41 44
55 54 49 48 54 56 55 53 48 45 39 34 32 27 24 21 16 10 6 6 6 5 11 15 19 23 25 26 28 29 30 32 33 34 38 37 35 31 37 37 37 35 33
54 55 53 52 56 62 64 62 57 55 50 44 38 34 30 25 19 16 14 10 7 4 6 12 14 17 20 22 23 25 23 27 27 27 30 31 31 28 32 32 30 30 29
60 57 57 58 62 65 70 70 65 61 57 53 43 39 33 27 23 21 18 12 9 6 2 4 7 10 15 18 18 20 19 20 22 21 23 25 24 23 28 29 29 26 25
59 60 62 64 65 70 74 74 71 68 62 56 49 47 41 35 30 27 23 19 15 12 10 7 5 4 6 9 11 14 16 16 17 18 16 18 19 19 21 22 24 25 25
63 63 65 64 65 69 73 78 78 72 68 61 57 54 48 40 34 31 29 25 20 17 14 11 10 8 6 6 6 7 10 11 13 16 14 15 16 16 17 16 16 16 18
64 66 67 64 66 72 74 80 81 74 72 67 64 60 52 44 40 36 33 30 27 23 20 18 16 13 10 8 7 6 6 7 8 10 13 10 10 12 12 12 13 15 15
68 66 66 66 68 72 74 79 82 80 76 73 70 65 57 49 47 42 40 36 32 28 26 24 22 19 17 14 12 11 10 10 9 8 8 10 10 10 11 11 10 11 12
67 69 71 71 73 75 76 80 84 85 79 76 73 67 60 54 48 45 42 39 35 33 31 30 28 25 22 20 19 18 15 12 11 10 10 10 10 11 12 13 13 13 13
Wind_Direction_500mb
282 289 295 299 307 313 314 314 310 306 302 299 300 297 293 292 291 287 284 284 282 278 277 278 277 278 274 273 273 269 270 264 270 277 283 284 284 286 275 272 267 276 274
280 289 294 301 312 318 321 322 315 309 308 305 300 297 293 292 291 287 284 281 281 279 278 278 280 281 275 270 269 270 270 265 266 275 278 275 276 280 280 273 274 264 260
281 290 292 300 315 323 327 327 320 317 317 314 308 304 303 303 299 296 292 287 284 285 284 283 281 280 277 274 268 265 265 266 268 269 272 268 270 269 273 264 268 273 262
279 284 285 293 313 326 331 331 327 323 323 320 319 315 313 311 308 305 303 300 296 289 288 285 283 282 281 276 270 267 265 263 264 267 264 267 262 267 265 258 260 269 236
275 280 277 280 304 325 333 336 333 329 329 327 331 328 321 317 319 322 310 299 300 299 296 294 290 287 284 280 276 271 267 267 264 260 258 253 259 256 250 252 247 254 249
270 275 273 270 282 316 328 338 329 335 337 336 337 340 338 336 328 325 311 314 315 311 307 302 296 288 285 281 277 270 260 262 261 253 269 240 257 250 252 249 247 240 237
263 270 273 270 273 293 315 326 334 338 343 347 345 349 351 348 345 346 336 330 325 324 322 321 319 309 294 289 286 265 256 263 259 254 260 256 257 272 263 246 240 238 232
258 265 271 272 273 280 301 298 329 343 348 350 349 355 355 356 2 6 360 355 352 348 344 345 346 337 319 292 289 265 254 260 257 249 251 255 256 250 257 249 237 233 234
255 261 270 272 274 278 291 297 297 309 344 346 354 357 352 352 352 1 355 348 347 349 355 360 5 357 352 321 292 278 266 257 257 261 264 251 237 248 244 217 217 216 190
257 256 261 268 271 275 284 291 307 307 308 311 326 332 336 330 330 340 343 337 339 353 358 4 11 7 0 353 323 294 281 274 257 256 257 247 242 236 210 209 216 209 186
244 249 259 266 267 269 275 283 287 294 294 298 308 323 332 336 339 341 351 353 1 5 8 13 15 12 10 14 9 8 348 299 225 206 190 181 192 170 164 163 182 198 181
247 251 253 260 260 261 264 266 272 279 289 298 303 313 327 342 5 14 23 18 15 13 13 18 20 18 22 30 35 39 46 65 121 142 133 131 128 126 131 146 165 173 167
252 257 252 252 256 258 254 258 259 265 282 295 298 296 301 328 359 17 28 26 24 24 22 21 22 25 33 40 44 51 63 83 106 122 121 117 118 126 131 139 154 167 163
256 261 253 252 250 256 251 249 249 253 268 282 287 276 275 319 356 17 29 29 30 30 26 26 29 31 38 48 57 59 67 79 87 99 102 104 108 115 123 132 147 149 149
258 258 256 253 249 247 252 245 243 240 249 261 270 258 251 274 325 9 26 26 28 30 24 28 40 50 52 51 55 58 63 69 78 84 91 99 107 115 116 123 130 137 139
255 258 260 254 252 248 246 244 244 238 232 240 254 248 234 216 219 55 43 37 33 37 23 37 47 51 54 56 59 62 66 68 71 78 88 97 105 109 113 115 121 127 126
259 261 260 255 248 243 240 240 238 235 230 226 229 242 235 221 195 149 99 68 54 56 42 54 55 55 58 59 61 65 68 69 71 76 81 84 90 96 104 110 118 122 122
256 257 257 256 248 243 240 238 234 230 227 223 215 221 231 223 208 178 141 106 65 67 59 64 62 61 61 60 64 66 68 73 77 79 81 84 90 97 102 105 111 115 119
254 255 255 254 248 240 238 236 233 227 222 217 215 212 218 223 213 201 171 152 117 78 77 71 74 74 72 71 72 68 72 76 77 82 84 84 84 88 95 99 104 108 113
250 253 254 251 248 238 232 231 228 224 221 217 215 213 214 216 215 217 202 185 146 122 81 83 78 84 84 80 79 78 78 83 81 84 89 93 96 97 100 101 102 105 115
250 253 255 250 245 238 233 230 226 223 222 218 213 215 217 215 221 223 212 198 181 171 150 87 71 80 86 88 89 90 87 87 89 88 93 99 98 105 110 115 117 119 120
254 255 253 249 244 237 230 228 227 224 221 218 210 211 215 217 217 223 218 212 211 206 199 188 177 147 110 99 99 100 103 102 103 101 100 105 109 113 116 119 123 126 128
255 253 251 244 240 237 231 226 225 223 220 216 213 214 216 216 218 221 222 218 217 216 213 211 210 196 174 158 140 123 120 114 113 115 115 119 126 127 126 129 131 140 143
251 251 246 239 236 234 229 225 222 222 220 216 214 215 216 212 217 221 222 223 222 221 221 223 225 220 214 207 192 178 171 155 139 131 128 125 128 139 144 150 147 149 152
249 242 237 235 233 232 229 224 222 220 218 215 214 215 216 213 216 219 220 221 220 221 224 228 228 226 223 224 221 218 212 201 186 176 165 164 169 169 171 169 167 167 167
240 238 238 235 231 230 230 226 221 219 217 215 214 215 216 216 216 219 222 223 221 221 223 225 226 226 227 228 229 230 228 221 219 213 202 194 199 200 198 196 194 188 188
Wind_Speed_850mb
31 34 34 34 38 48 53 50 47 43 38 35 35 37 39 41 41 44 45 47 49 51 54 58 59 58 59 61 63 67 69 65 76 82 76 76 74 60 49 45 37 40 41
31 32 31 31 38 43 44 45 43 38 35 35 35 40 42 45 44 46 48 52 56 58 56 56 58 58 64 64 63 68 69 72 76 79 76 70 74 60 48 43 36 39 44
30 30 29 29 34 37 37 39 40 35 32 31 35 38 38 39 42 43 44 48 53 51 55 58 59 59 62 65 67 70 70 76 77 84 84 71 65 62 57 48 46 41 43
29 29 27 26 27 31 33 35 37 31 29 31 33 33 34 36 37 39 35 40 47 53 53 53 56 59 61 63 65 69 68 72 72 72 68 67 66 60 52 50 45 45 36
28 28 26 25 22 27 31 34 35 30 26 29 30 30 31 31 29 28 37 43 47 46 47 50 52 54 55 56 63 68 69 68 64 71 67 63 61 64 57 50 50 46 41
29 27 29 27 25 25 28 30 31 25 22 23 26 30 29 27 27 29 33 35 36 39 44 47 50 53 55 56 57 54 51 55 52 71 48 58 51 53 56 54 53 55 49
30 28 29 30 31 27 27 25 26 22 20 23 26 29 28 25 24 26 27 27 28 31 35 38 38 36 38 42 41 36 41 47 52 60 66 68 60 57 53 60 60 55 57
31 29 29 31 32 32 30 25 21 24 22 23 23 23 23 22 22 22 22 25 26 28 29 30 33 36 32 33 31 29 33 33 38 47 53 50 50 59 51 52 57 50 50
32 28 27 29 29 30 28 24 23 22 21 18 18 18 20 21 19 16 19 22 27 28 31 35 41 41 39 22 20 22 25 27 25 28 34 36 48 53 31 45 52 54 51
27 26 28 28 27 28 25 22 19 17 17 14 15 21 25 23 23 20 22 23 24 24 27 33 41 47 42 30 16 14 15 19 20 21 22 25 31 31 32 34 37 50 60
26 31 28 26 24 26 23 18 17 16 19 19 21 26 23 21 21 19 18 19 23 27 30 32 37 43 44 33 21 11 7 3 5 6 12 14 14 17 26 33 36 50 54
27 31 28 25 25 27 23 20 19 17 18 23 24 21 17 15 15 16 20 23 26 29 32 35 39 42 46 46 32 24 18 10 10 17 24 27 32 27 34 34 34 48 38
24 28 30 28 27 29 25 23 21 17 18 20 21 18 12 9 11 14 19 23 26 29 31 33 33 36 41 48 49 33 23 18 21 25 36 37 39 35 35 31 30 32 19
26 27 31 34 29 31 29 26 24 19 17 19 21 18 12 5 8 12 17 21 24 28 31 28 28 29 32 38 47 51 46 38 33 33 31 31 32 33 34 34 26 27 27
33 30 36 36 37 31 33 29 28 23 19 18 21 21 13 3 5 9 15 19 23 29 29 26 24 28 31 34 37 42 47 48 48 42 37 35 35 35 36 35 34 35 39
40 38 41 40 41 39 36 35 32 28 22 18 18 21 15 9 3 5 10 14 17 21 19 23 28 33 37 38 38 38 40 42 43 40 40 39 39 36 37 36 34 36 46
45 42 43 47 47 48 44 42 37 34 28 23 19 20 17 14 8 6 6 8 9 15 14 22 28 32 35 35 36 38 42 42 40 39 40 40 39 40 38 39 41 45 50
50 46 45 48 51 53 52 47 43 40 33 27 24 20 20 17 12 8 7 8 7 10 15 21 25 28 29 30 33 36 38 37 37 40 41 42 40 40 41 42 40 41 44
55 54 49 48 54 56 55 53 48 45 39 34 32 27 24 21 16 10 6 6 6 5 11 15 19 23 25 26 28 29 30 32 33 34 38 37 35 31 37 37 37 35 33
54 55 53 52 56 62 64 62 57 55 50 44 38 34 30 25 19 16 14 10 7 4 6 12 14 17 20 22 23 25 23 27 27 27 30 31 31 28 32 32 30 30 29
60 57 57 58 62 65 70 70 65 61 57 53 43 39 33 27 23 21 18 12 9 6 2 4 7 10 15 18 18 20 19 20 22 21 23 25 24 23 28 29 29 26 25
59 60 62 64 65 70 74 74 71 68 62 56 49 47 41 35 30 27 23 19 15 12 10 7 5 4 6 9 11 14 16 16 17 18 16 18 19 19 21 22 24 25 25
63 63 65 64 65 69 73 78 78 72 68 61 57 54 48 40 34 31 29 25 20 17 14 11 10 8 6 6 6 7 10 11 13 16 14 15 16 16 17 16 16 16 18
64 66 67 64 66 72 74 80 81 74 72 67 64 60 52 44 40 36 33 30 27 23 20 18 16 13 10 8 7 6 6 7 8 10 13 10 10 12 12 12 13 15 15
68 66 66 66 68 72 74 79 82 80 76 73 70 65 57 49 47 42 40 36 32 28 26 24 22 19 17 14 12 11 10 10 9 8 8 10 10 10 11 11 10 11 12
67 69 71 71 73 75 76 80 84 85 79 76 73 67 60 54 48 45 42 39 35 33 31 30 28 25 22 20 19 18 15 12 11 10 10 10 10 11 12 13 13 13 13
Wind_Direction_850mb
282 289 295 299 307 313 314 314 310 306 302 299 300 297 293 292 291 287 284 284 282 278 277 278 277 278 274 273 273 269 270 264 270 277 283 284 284 286 275 272 267 276 274
280 289 294 301 312 318 321 322 315 309 308 305 300 297 293 292 291 287 284 281 281 279 278 278 280 281 275 270 269 270 270 265 266 275 278 275 276 280 280 273 274 264 260
281 290 292 300 315 323 327 327 320 317 317 314 308 304 303 303 299 296 292 287 284 285 284 283 281 280 277 274 268 265 265 266 268 269 272 268 270 269 273 264 268 273 262
279 284 285 293 313 326 331 331 327 323 323 320 319 315 313 311 308 305 303 300 296 289 288 285 283 282 281 276 270 267 265 263 264 267 264 267 262 267 265 258 260 269 236
275 280 277 280 304 325 333 336 333 329 329 327 331 328 321 317 319 322 310 299 300 299 296 294 290 287 284 280 276 271 267 267 264 260 258 253 259 256 250 252 247 254 249
270 275 273 270 282 316 328 338 329 335 337 336 337 340 338 336 328 325 311 314 315 311 307 302 296 288 285 281 277 270 260 262 261 253 269 240 257 250 252 249 247 240 237
263 270 273 270 273 293 315 326 334 338 343 347 345 349 351 348 345 346 336 330 325 324 322 321 319 309 294 289 286 265 256 263 259 254 260 256 257 272 263 246 240 238 232
258 265 271 272 273 280 301 298 329 343 348 350 349 355 355 356 2 6 360 355 352 348 344 345 346 337 319 292 289 265 254 260 257 249 251 255 256 250 257 249 237 233 234
255 261 270 272 274 278 291 297 297 309 344 346 354 357 352 352 352 1 355 348 347 349 355 360 5 357 352 321 292 278 266 257 257 261 264 251 237 248 244 217 217 216 190
257 256 261 268 271 275 284 291 307 307 308 311 326 332 336 330 330 340 343 337 339 353 358 4 11 7 0 353 323 294 281 274 257 256 257 247 242 236 210 209 216 209 186
244 249 259 266 267 269 275 283 287 294 294 298 308 323 332 336 339 341 351 353 1 5 8 13 15 12 10 14 9 8 348 299 225 206 190 181 192 170 164 163 182 198 181
247 251 253 260 260 261 264 266 272 279 289 298 303 313 327 342 5 14 23 18 15 13 13 18 20 18 22 30 35 39 46 65 121 142 133 131 128 126 131 146 165 173 167
252 257 252 252 256 258 254 258 259 265 282 295 298 296 301 328 359 17 28 26 24 24 22 21 22 25 33 40 44 51 63 83 106 122 121 117 118 126 131 139 154 167 163
256 261 253 252 250 256 251 249 249 253 268 282 287 276 275 319 356 17 29 29 30 30 26 26 29 31 38 48 57 59 67 79 87 99 102 104 108 115 123 132 147 149 149
258 258 256 253 249 247 252 245 243 240 249 261 270 258 251 274 325 9 26 26 28 30 24 28 40 50 52 51 55 58 63 69 78 84 91 99 107 115 116 123 130 137 139
255 258 260 254 252 248 246 244 244 238 232 240 254 248 234 216 219 55 43 37 33 37 23 37 47 51 54 56 59 62 66 68 71 78 88 97 105 109 113 115 121 127 126
259 261 260 255 248 243 240 240 238 235 230 226 229 242 235 221 195 149 99 68 54 56 42 54 55 55 58 59 61 65 68 69 71 76 81 84 90 96 104 110 118 122 122
256 257 257 256 248 243 240 238 234 230 227 223 215 221 231 223 208 178 141 106 65 67 59 64 62 61 61 60 64 66 68 73 77 79 81 84 90 97 102 105 111 115 119
254 255 255 254 248 240 238 236 233 227 222 217 215 212 218 223 213 201 171 152 117 78 77 71 74 74 72 71 72 68 72 76 77 82 84 84 84 88 95 99 104 108 113
250 253 254 251 248 238 232 231 228 224 221 217 215 213 214 216 215 217 202 185 146 122 81 83 78 84 84 80 79 78 78 83 81 84 89 93 96 97 100 101 102 105 115
250 253 255 250 245 238 233 230 226 223 222 218 213 215 217 215 221 223 212 198 181 171 150 87 71 80 86 88 89 90 87 87 89 88 93 99 98 105 110 115 117 119 120
254 255 253 249 244 237 230 228 227 224 221 218 210 211 215 217 217 223 218 212 211 206 199 188 177 147 110 99 99 100 103 102 103 101 100 105 109 113 116 119 123 126 128
255 253 251 244 240 237 231 226 225 223 220 216 213 214 216 216 218 221 222 218 217 216 213 211 210 196 174 158 140 123 120 114 113 115 115 119 126 127 126 129 131 140 143
251 251 246 239 236 234 229 225 222 222 220 216 214 215 216 212 217 221 222 223 222 221 221 223 225 220 214 207 192 178 171 155 139 131 128 125 128 139 144 150 147 149 152
249 242 237 235 233 232 229 224 222 220 218 215 214 215 216 213 216 219 220 221 220 221 224 228 228 226 223 224 221 218 212 201 186 176 165 164 169 169 171 169 167 167 167
240 238 238 235 231 230 230 226 221 219 217 215 214 215 216 216 216 219 222 223 221 221 223 225 226 226 227 228 229 230 228 221 219 213 202 194 199 200 198 196 194 188 188